Location: SAPM � Hemmingford
(45.0500°N, 73.5833°W)
Time: 08:14:50
(UTC-04:00)

Daily predictions for brighter satellites

Satellite Brightness Start Highest point End
(mag) Time Altitude Azimuth Time Altitude Azimuth Time Altitude Azimuth
Lacrosse 5 rocket 2.9 20:18:35 10° WNW 20:21:43 27° SW 20:24:58 10° S
Envisat 3.2 20:16:56 10° SSE 20:21:54 56° ENE 20:26:53 10° N
Cosmos 1939 Rocket 3.5 20:19:33 10° SE 20:23:11 36° ENE 20:26:47 10° N
Cosmos 1536 3.7 20:20:12 10° SSE 20:23:46 30° E 20:27:20 10° NNE
H-2A R/B 4.0 20:29:26 10° ENE 20:31:06 12° NE 20:32:47 10° NE
Cosmos 1655 Rocket 4.1 20:28:50 10° S 20:35:08 87° W 20:41:32 10° N
Meteor 2-4 Rocket 3.8 20:29:52 10° N 20:35:23 61° ENE 20:41:01 10° SSE
CZ-2D R/B 4.0 20:34:41 10° S 20:38:28 54° W 20:42:16 10° NNW
Okean 2 Rocket 4.2 20:34:17 10° SSW 20:38:39 50° WNW 20:43:04 10° N
ATLAS 2AS CENTAUR R/B 3.3 20:32:56 10° S 20:40:12 48° ESE 20:47:51 10° NE
Meteor 1-13 Rocket 4.5 20:38:01 10° NNW 20:44:00 84° W 20:49:56 10° S
CZ-4B DEB 4.1 20:43:53 14° ESE 20:45:21 20° ENE 20:47:35 10° NNE
BREEZE-M DEB (TANK) 2.9 20:42:31 10° SW 20:45:25 54° SE 20:53:28 10° ENE
BREEZE-M DEB (TANK) 4.1 20:44:00 10° W 20:47:16 43° SSW 20:58:56 10° SE
BREEZE M DEB (TANK) 4.5 20:35:30 10° W 20:47:30 60° NNW 20:51:11 10° ENE
NOSS 2-3 (E) 3.9 20:45:58 10° SSW 20:50:37 66° ESE 20:56:05 10° NE
Helios 1B rocket 3.1 20:49:43 10° NNE 20:53:27 32° E 20:57:09 10° SSE
Cosmos 839 Rocket 4.5 20:49:45 10° SW 20:55:55 67° NW 21:02:18 10° NNE
SPOT 5 4.3 20:54:21 14° ESE 20:56:55 21° ENE 21:00:20 10° NNE
USA 186 3.2 20:53:52 10° S 20:57:03 40° W 21:00:17 10° NNW
Lacrosse 5 2.0 20:54:07 10° SSW 20:59:02 52° SE 21:03:57 10° ENE
Cosmos 1850 Rocket 4.3 20:53:46 10° NNW 20:59:06 70° WSW 21:04:21 10° S
Cosmos 1331 Rocket 4.5 20:58:31 10° SSE 21:03:16 38° ESE 21:08:04 10° NE
Atlas Centaur 2 4.3 20:58:00 10° WSW 21:04:11 24° SSW 21:08:52 13° SSE
SL-8 R/B 3.8 21:02:00 10° WNW 21:06:48 75° NNE 21:10:16 19° E
SeaSat 1 2.4 21:01:58 10° NNE 21:06:56 76° ESE 21:11:51 10° SSW
ARGOS 3.8 21:08:23 19° ESE 21:11:40 38° ENE 21:16:35 10° N
Cosmos 1607 4.2 21:06:29 10° NW 21:12:57 76° WSW 21:18:19 16° SSE
Cosmos 220 Rocket 4.0 21:12:56 10° NNW 21:17:15 79° WSW 21:20:28 18° SSE
Okean 1 Rocket 3.0 21:14:04 10° S 21:18:25 85° E 21:22:50 10° N
Cosmos 2263 Rocket 2.7 21:13:02 10° NNW 21:18:40 60° WSW 21:23:58 11° S
Cosmos 1300 Rocket 4.0 21:15:07 10° SSW 21:19:23 63° W 21:23:41 10° N
Cosmos 1025 Rocket 2.9 21:16:09 10° N 21:20:26 73° E 21:23:14 21° SSE
Cosmos 2278 Rocket 4.0 21:17:53 10° N 21:21:47 18° NE 21:24:48 13° E
Okean 2 3.3 21:18:26 10° N 21:22:31 65° E 21:24:45 25° SSE
NOSS 2-3 (C) 4.2 21:19:35 10° SW 21:24:19 72° NW 21:30:00 10° NE
Cosmos 2322 Rocket 3.0 21:18:52 10° SW 21:24:28 56° WNW 21:30:06 10° NNE
YAOGAN 6 3.1 21:22:14 14° S 21:25:09 56° W 21:28:39 10° NNW
Cosmos 1844 Rocket 3.4 21:20:21 10° NNW 21:25:41 40° NE 21:28:30 24° ESE
Tiangong 1 2.6 21:24:34 10° WSW 21:26:43 20° SSW 21:26:47 20° SSW
Okean 1-7 Rocket 3.5 21:25:30 10° N 21:30:01 86° ENE 21:32:58 22° S
Cosmos 1818 4.4 21:29:42 27° SE 21:30:34 28° ESE 21:35:10 10° NE
Cosmos 2237 4.4 21:25:22 10° S 21:30:45 46° ESE 21:36:10 10° NE
SPOT 1/Viking Rocket 4.4 21:30:02 26° ESE 21:32:08 35° ENE 21:36:51 10° N
Cosmos 2266 Rocket 4.2 21:26:34 10° SSW 21:32:34 69° W 21:38:37 10° N
Resurs 01 Rocket 4.2 21:29:58 10° SW 21:33:11 19° W 21:36:25 10° NW
NOSS 3-2 (A) 4.4 21:26:11 10° NNW 21:33:20 52° NE 21:38:15 23° ESE
USA 238 DEB 3.8 21:28:33 10° NW 21:35:41 80° NE 21:39:58 27° SE
USA 238 3.8 21:28:39 10° NW 21:35:47 80° NE 21:40:04 27° SE
Abrixas rocket 2.7 21:33:03 10° WNW 21:36:19 54° NNE 21:37:17 37° ENE
Cosmos 1515 3.5 21:32:37 10° N 21:36:27 79° E 21:37:54 36° SSE
SL-16 R/B 3.3 21:31:18 10° SW 21:36:44 46° WNW 21:42:12 10° NNE
Cosmos 2315 Rocket 4.0 21:31:50 10° N 21:38:06 84° W 21:43:24 15° S
Terra 3.4 21:38:02 19° E 21:39:00 20° ENE 21:42:27 10° NNE
Cosmos 1975 3.2 21:40:38 40° ESE 21:40:59 41° E 21:44:45 10° NNE
MetOp-B 4.1 21:38:08 26° SSE 21:41:14 78° ENE 21:46:36 10° NNW
Cosmos 2219 Rocket 3.3 21:42:47 25° E 21:42:47 25° E 21:46:44 10° NE
EXPRESS MD2 4.0 21:40:37 10° W 21:43:39 54° N 21:49:23 10° ENE
Helios 1A 4.0 21:41:24 14° SSW 21:44:46 44° W 21:48:51 10° NNW
Nadezhda 2 Rocket 4.4 21:38:41 10° S 21:44:51 89° E 21:51:08 10° N
Meteor 1-12 Rocket 4.5 21:43:44 30° SSE 21:46:03 47° E 21:51:27 10° NNE
H-2A R/B 4.3 21:46:43 12° ENE 21:47:08 12° ENE 21:48:58 10° NNE
Cosmos 2322 3.6 21:42:14 10° SSW 21:47:53 80° ESE 21:53:35 10° NNE
ERS-1 Rocket 3.0 21:46:40 25° S 21:49:38 77° WSW 21:54:40 10° NNW
ATLAS 3B R/B 2.6 21:43:44 10° NW 21:50:30 76° WSW 21:53:55 30° SSE
Meteor 1-29 3.4 21:48:47 10° N 21:52:10 61° WNW 21:54:01 24° SSW
USA 245 3.6 21:51:09 39° SSE 21:52:54 73° ENE 21:57:02 10° N
Cosmos 1500 3.1 21:52:07 44° S 21:53:15 84° E 21:57:10 10° N
Cosmos 2360 Rocket 2.4 21:51:25 10° SSW 21:57:02 73° WNW 22:02:41 10° NNE
COSMOS 2428 2.8 21:55:48 27° S 21:58:48 55° ESE 22:04:23 10° NE
Cosmos 1745 Rocket 4.1 22:01:10 38° SE 22:03:07 52° E 22:09:05 10° NNE
Cosmos 1844 3.9 21:58:34 10° NNW 22:04:12 59° ENE 22:05:53 42° ESE
Cosmos 1626 Rocket 4.4 22:02:36 10° N 22:06:21 35° ENE 22:06:21 35° ENE
Cosmos 1892 Rocket 3.6 22:04:57 10° NNW 22:09:23 77° W 22:10:26 51° S
H-2A R/B 1.9 22:08:23 49° SSE 22:09:44 79° ENE 22:14:43 10° N
Cosmos 2333 Rocket 3.0 22:13:04 33° E 22:13:04 33° E 22:17:10 10° NE
Cosmos 1238 Rocket 4.1 22:05:39 10° N 22:12:25 78° W 22:15:42 31° S
NOSS 3-2 (C) 4.1 22:05:11 10° NW 22:12:33 65° NE 22:16:02 36° ESE
Cosmos 1437 Rocket 3.5 22:19:12 43° NE 22:19:12 43° NE 22:22:06 10° NNE
Cosmos 2333 4.0 22:16:47 35° S 22:19:14 73° ESE 22:24:51 10° NNE
Cosmos 1302 Rocket 4.1 22:19:34 21° SSW 22:23:10 77° WNW 22:28:29 10° NNE
COSMOS 2455 4.5 22:19:48 10° NNW 22:24:32 23° NE 22:26:58 18° ENE
Cosmos 1486 Rocket 4.3 22:19:38 10° NNW 22:24:48 60° WSW 22:26:11 44° SSW
Cosmos 1544 Rocket 3.7 22:24:21 57° SW 22:25:11 75° W 22:29:40 10° N
Cosmos 1386 Rocket 4.5 22:25:46 51° SE 22:27:06 63° E 22:33:19 10° NNE
Cosmos 2237 Rocket 3.4 22:30:37 26° ENE 22:30:37 26° ENE 22:33:42 10° NE
Cosmos 405 4.1 22:28:31 40° W 22:28:52 41° WNW 22:32:18 10° N
ATLAS 2AS CENTAUR R/B 3.8 22:23:38 10° WSW 22:31:15 52° NW 22:39:12 10° NNE
Cosmos 968 Rocket 4.4 22:27:44 10° N 22:32:22 33° ENE 22:32:33 33° ENE
IGS 5A 4.0 22:33:14 49° NE 22:33:14 49° NE 22:36:41 10° N
GP-B 3.7 22:28:58 10° N 22:32:32 46° NE 22:32:32 46° NE
SPOT 5 3.4 22:33:36 41° SW 22:34:42 50° W 22:39:14 10° NNW
BREEZE M DEB (TANK) 3.8 22:30:25 10° WSW 22:33:38 29° SW 22:33:38 29° SW
Cosmos 1241 Rocket 4.5 22:29:56 10° SW 22:36:30 86° WNW 22:43:02 10° NNE
Cosmos 1455 Rocket 3.4 22:37:04 57° WSW 22:37:37 63° W 22:42:03 10° N
Cosmos 1666 3.8 22:39:56 40° NNE 22:39:56 40° NNE 22:42:29 10° N
CENTAUR R/B 3.7 22:32:26 10° NNW 22:39:47 46° NE 22:43:21 31° E
NOSS 3-4 (A) 3.4 22:41:26 59° ESE 22:41:28 59° ESE 22:47:49 10° NE
NOSS 3-4 (C) 3.5 22:41:38 58° ESE 22:41:38 58° ESE 22:47:56 10° NE
Lacrosse 5 3.2 22:37:22 10° W 22:42:09 40° NNW 22:46:56 10° NE
Cosmos 1842 4.4 22:44:19 10° N 22:46:59 40° N 22:46:59 40° N
Nadezhda 1 Rocket 4.1 22:45:12 10° NNW 22:51:30 70° W 22:53:09 50° SSW
Timation 1 Rocket 4.2 22:46:42 10° NNW 22:52:43 79° ENE 22:53:17 72° ESE
Cosmos 1743 4.0 22:56:16 39° NW 22:56:16 39° NW 22:59:14 10° N
Meteor 1-21 4.3 22:55:04 10° NNW 23:00:41 70° W 23:01:12 65° SW
Landsat 7 4.3 23:01:05 52° W 23:01:05 52° W 23:05:43 10° NNW
DMSP B5D2-2 4.2 22:56:55 10° N 23:02:10 69° WNW 23:02:48 62° WSW
Cosmos 1354 Rocket 4.4 22:57:20 10° NNW 23:02:32 54° WSW 23:02:44 54° WSW
Cosmos 2278 Rocket 2.1 23:00:58 10° NNW 23:06:39 89° NW 23:06:39 89° NW
Cosmos 1844 Rocket 3.7 23:04:25 10° NW 23:09:30 34° WSW 23:10:09 33° WSW
CARTOSAT-1 4.5 23:10:33 46° WNW 23:10:33 46° WNW 23:13:57 10° NNW
Cosmos 2181 Rocket 3.9 23:03:51 10° N 23:10:19 74° E 23:10:38 73° ESE
Cosmos 1709 Rocket 3.8 23:10:41 81° SE 23:10:55 83° E 23:17:12 10° N
ARGOS Delta rocket 4.4 23:08:17 10° N 23:11:44 52° NNE 23:11:44 52° NNE
Cosmos 1818 4.3 23:10:06 19° WSW 23:13:52 51° NW 23:19:12 10° NNE
Terra 2.5 23:16:55 49° WNW 23:16:55 49° WNW 23:21:03 10° NNW
SL-19 R/B 4.4 23:15:35 10° NNE 23:21:56 85° ESE 23:22:01 85° SE
H-2A R/B 3.2 23:23:50 43° NNW 23:23:50 43° NNW 23:26:54 10° NNW
NOSS 3-2 (A) 4.5 23:17:11 10° NW 23:24:21 47° WSW 23:25:38 44° SW
CZ-2C R/B 4.2 23:20:01 10° NNE 23:22:55 26° ENE 23:22:55 26° ENE
USA 81 4.3 23:19:44 10° N 23:24:29 66° NW 23:24:29 66° NW
CZ-2C R/B 4.1 23:26:25 34° NE 23:26:25 34° NE 23:29:46 10° N
Cosmos 2219 Rocket 2.8 23:24:26 43° WSW 23:25:49 53° WNW 23:31:22 10° NNE
Meteor 2-9 Rocket 4.4 23:27:37 66° W 23:27:44 66° WNW 23:33:23 10° N
Cosmos 972 Rocket 4.3 23:28:17 75° N 23:28:17 75° N 23:33:54 10° NNE
BREEZE M DEB (TANK) 4.3 23:18:56 10° WSW 23:35:04 83° NNW 23:36:24 55° ENE
SL-16 R/B 3.4 23:39:45 31° NE 23:39:45 31° NE 23:42:52 10° NE
Meteor 2-5 Rocket 4.1 23:40:33 10° N 23:45:41 60° NE 23:45:41 60° NE
H-2A R/B 4.3 23:49:01 13° W 23:49:43 13° W 23:52:05 10° WNW
NOSS 0 Rocket 4.5 23:51:55 48° W 23:53:02 54° WNW 23:59:11 10° NNE
ATLAS CENTAUR R/B 3.8 23:52:15 10° NNW 23:53:18 18° NNW 23:53:18 18° NNW
